DW8215 Weather Reports


Display with metric or nautical units.
time (UTC)temp
F
wind
direction
speed
MPH
gust
MPH
rain 1hr
in
rain 24hr
in
rain mn
in
humidity
%
barometer
mb
20260509104548 43 253 3.0 9.0 0.00 0.00 0.00 61 999.4
20260509103050 43 250 0.0 3.0 0.00 0.00 0.00 62 999.1
20260509101543 44 258 0.0 0.0 0.00 0.00 0.00 60 999.0
20260509100049 45 227 2.0 4.0 0.00 0.00 0.00 58 999.1
20260509094542 45 229 1.0 7.0 0.00 0.00 0.00 60 999.3
20260509093043 44 271 0.0 0.0 0.00 0.00 0.00 65 999.4
20260509091540 45 243 0.0 0.0 0.00 0.00 0.00 67 999.2
20260509090048 44 254 0.0 0.0 0.00 0.00 0.00 64 999.3
20260509084537 45 254 0.0 0.0 0.00 0.00 0.00 65 999.2
20260509083036 45 177 0.0 0.0 0.00 0.00 0.00 62 999.1
20260509081535 45 197 0.0 3.0 0.00 0.00 0.00 63 999.1
20260509080032 47 101 0.0 0.0 0.00 0.00 0.00 61 999.3
20260509074531 47 267 0.0 0.0 0.00 0.00 0.00 56 999.1
20260509073031 47 254 0.0 2.0 0.00 0.00 0.00 56 999.2
20260509071530 46 263 0.0 2.0 0.00 0.00 0.00 59 999.1
20260509070030 46 313 0.0 0.0 0.00 0.00 0.00 66 999.1
20260509064530 47 194 0.0 0.0 0.00 0.00 0.00 64 999.1
20260509063030 49 182 0.0 0.0 0.00 0.00 0.00 56 999.2
20260509061528 50 145 0.0 2.0 0.00 0.00 0.00 54 999.2
20260509060031 50 139 0.0 5.0 0.00 0.00 0.00 51 999.4
20260509054522 49 152 0.0 4.0 0.00 0.00 0.00 52 999.3
20260509053020 48 128 1.0 5.0 0.00 0.00 0.00 54 999.7
20260509051517 47 252 0.0 2.0 0.00 0.00 0.00 56 1000.0
20260509050037 47 111 2.0 4.0 0.00 0.00 0.00 54 1000.1
20260509044513 46 265 1.0 4.0 0.00 0.00 0.00 61 1000.4
20260509043010 47 180 0.0 0.0 0.00 0.00 0.00 56 1000.6
20260509041507 48 236 0.0 0.0 0.00 0.00 0.00 56 1000.8
20260509034601 49 9 0.0 0.0 0.00 0.00 0.00 56 1001.4
20260509033059 50 9 0.0 0.0 0.00 0.00 0.00 49 1001.6
20260509031618 50 341 0.0 1.0 0.00 0.00 0.00 51 1001.9
20260509030057 50 304 0.0 2.0 0.00 0.00 0.00 54 1002.2
20260509024554 51 295 0.0 0.0 0.00 0.00 0.00 53 1002.2
20260509023058 51 295 0.0 1.0 0.00 0.00 0.00 49 1002.2
20260509021554 53 277 0.0 0.0 0.00 0.00 0.00 46 1002.3
20260509020053 53 193 0.0 3.0 0.00 0.00 0.00 41 1002.3
20260509014552 53 186 0.0 1.0 0.00 0.00 0.00 43 1002.2
20260509013055 53 180 2.0 4.0 0.00 0.00 0.00 43 1002.2
20260509011551 53 140 3.0 5.0 0.00 0.00 0.00 40 1002.3
20260509010049 53 333 0.0 0.0 0.00 0.00 0.00 45 1002.4
20260509004550 53 39 0.0 0.0 0.00 0.01 0.00 42 1002.9
20260509003045 53 21 0.0 2.0 0.00 0.01 0.00 42 1003.1
20260509001544 54 317 2.0 4.0 0.00 0.01 0.00 40 1003.1
20260509000053 54 5 1.0 4.0 0.00 0.01 0.00 40 1003.2
20260508234541 55 9 1.0 3.0 0.00 0.01 0.00 39 1003.3
20260508233040 55 5 1.0 3.0 0.00 0.01 0.00 38 1003.4
20260508231543 56 16 2.0 5.0 0.00 0.01 0.00 38 1003.5
20260508230039 57 5 0.0 4.0 0.00 0.01 0.00 38 1003.5
20260508224538 59 42 3.0 4.0 0.00 0.01 0.00 32 1003.5
20260508223038 60 305 1.0 5.0 0.00 0.01 0.00 31 1003.6
20260508221538 60 329 0.0 5.0 0.00 0.01 0.00 31 1003.6
20260508220041 60 310 2.0 8.0 0.00 0.01 0.00 30 1003.7
20260508214534 60 262 2.0 8.0 0.00 0.01 0.00 31 1003.8
20260508213044 60 261 0.0 4.0 0.00 0.01 0.00 31 1003.8
20260508211534 60 196 2.0 8.0 0.00 0.01 0.00 32 1004.1
20260508210032 60 252 1.0 6.0 0.00 0.01 0.00 30 1004.3
20260508204528 60 286 2.0 9.0 0.00 0.01 0.00 29 1004.4
20260508203033 61 186 3.0 9.0 0.00 0.01 0.00 28 1004.4
20260508201527 61 202 3.0 13.0 0.00 0.01 0.00 29 1004.6
20260508200028 61 186 2.0 9.0 0.00 0.01 0.00 30 1004.8
20260508194523 61 256 1.0 7.0 0.00 0.01 0.00 30 1004.9
20260508193018 60 345 2.0 10.0 0.00 0.01 0.00 31 1005.1
20260508191525 59 319 2.0 10.0 0.00 0.01 0.00 32 1005.4
20260508190014 59 333 3.0 10.0 0.00 0.01 0.00 31 1005.6
20260508184517 59 9 6.0 11.0 0.00 0.01 0.00 29 1005.8
20260508183013 58 11 4.0 10.0 0.00 0.01 0.00 31 1005.7
20260508181532 58 327 5.0 10.0 0.00 0.01 0.00 28 1005.8
20260508180009 59 343 3.0 17.0 0.00 0.01 0.00 27 1006.1
20260508174515 59 217 5.0 13.0 0.00 0.01 0.00 30 1006.1
20260508173006 59 234 6.0 14.0 0.00 0.01 0.00 29 1006.4
20260508171501 58 270 1.0 11.0 0.00 0.01 0.00 33 1006.7
20260508170100 58 196 1.0 10.0 0.00 0.01 0.00 32 1006.8
20260508164611 57 302 5.0 13.0 0.00 0.01 0.00 31 1007.0
20260508164501 57 309 3.0 13.0 0.00 0.01 0.00 32 1007.0
20260508163057 57 275 3.0 11.0 0.00 0.01 0.00 34 1007.0
20260508161554 56 246 2.0 8.0 0.00 0.01 0.00 36 1007.2
20260508160051 55 286 2.0 15.0 0.00 0.01 0.00 37 1007.4
20260508154555 55 269 2.0 8.0 0.00 0.01 0.00 37 1007.6
20260508153046 54 260 2.0 9.0 0.00 0.01 0.00 40 1007.7
20260508151543 53 252 3.0 10.0 0.00 0.01 0.00 43 1007.9
20260508150041 53 163 3.0 8.0 0.00 0.01 0.00 40 1008.0
20260508144536 52 333 1.0 8.0 0.00 0.01 0.00 44 1008.2
20260508143037 52 227 3.0 8.0 0.00 0.01 0.00 48 1008.3
20260508141545 50 199 3.0 9.0 0.00 0.01 0.00 58 1008.4
20260508140025 47 213 3.0 8.0 0.00 0.01 0.00 70 1008.6
20260508134520 45 119 2.0 5.0 0.00 0.01 0.00 75 1008.7
20260508133020 42 180 2.0 4.0 0.00 0.01 0.00 85 1008.9
20260508131512 38 124 1.0 3.0 0.00 0.01 0.00 92 1008.9
20260508130008 36 137 0.0 0.0 0.00 0.01 0.00 94 1009.1
20260508124504 34 175 0.0 0.0 0.00 0.01 0.00 95 1009.3
20260508123000 33 175 0.0 0.0 0.00 0.01 0.00 96 1009.3
20260508121610 33 175 0.0 0.0 0.00 0.01 0.00 96 1009.3
20260508114557 30 267 0.0 0.0 0.00 0.01 0.00 97 1009.2
20260508113059 29 267 0.0 0.0 0.00 0.01 0.00 97 1009.2
20260508111600 28 267 0.0 0.0 0.00 0.01 0.00 96 1009.1